Terug naar catalogus

STARLINK-30141

ActiefCommunicatieVLEO
NORAD 57620·PAYLOAD·🇺🇸 United States

Gelanceerd Aug 11, 2023 vanaf Cape Canaveral Space Force Station

Loading…

Volgende Passages (komende 24 uur)

TLE

VersSource: CelesTrak SupGP

Epoch: Sep 14, 2026, 22:25 UTC

1 57620C 23119U   26257.93451389  .00023072  00000+0  83582-3 0  2579
2 57620  43.0000  92.7214 0001474 275.9042 319.0130 15.27561355    17

Volg STARLINK-30141 in realtime met AllMySat

Download on the App Store